Location: Port-Bou
(42.4263°N, 3.1577°E)
Time: 07:31:58
(UTC+00:00)

Daily predictions for brighter satellites

Satellite Brightness Start Highest point End
(mag) Time Altitude Azimuth Time Altitude Azimuth Time Altitude Azimuth
NOSS 2-1 (C) 4.5 16:34:45 10° NNW 16:39:52 59° NE 16:47:04 10° SE
Cosmos 405 3.0 16:41:17 10° S 16:44:47 84° W 16:48:17 10° N
NOSS 2-1 (D) 4.4 16:40:10 10° NNW 16:45:21 65° NE 16:52:39 10° SE
ADEOS Rocket 3.7 16:37:43 10° NNE 16:45:26 90° ENE 16:53:14 10° SSW
Cosmos 389 Rocket 4.1 16:43:22 10° SE 16:45:34 16° E 16:47:46 10° NE
Cosmos 372 Rocket 4.0 16:41:31 10° NNW 16:46:42 90° WSW 16:51:53 10° SSE
Cosmos 1943 Rocket 4.0 16:45:42 10° NNE 16:46:59 11° NE 16:48:16 10° NE
H-2A R/B 2.5 16:45:23 10° SSE 16:49:45 78° ENE 16:53:59 10° N
BREEZE-M DEB (TANK) 2.4 16:48:21 10° W 16:50:47 42° NNW 16:52:49 10° NE
SL-16 R/B 3.6 16:48:33 10° SE 16:52:18 18° E 16:56:03 10° ENE
NOAA 6 4.1 16:49:07 10° SSE 16:54:17 89° WSW 16:59:28 10° NNW
USA 215 3.5 16:48:57 10° NE 16:55:23 57° SE 17:01:48 10° SSW
Okean-O 4.4 16:55:11 10° E 16:56:39 11° ENE 16:58:07 10° NE
Cosmos 1743 Rocket 3.5 16:52:11 10° N 16:56:41 77° E 17:01:06 10° SSE
COSMO-SKYMED 1 4.0 16:54:03 10° NE 16:57:04 18° E 17:00:04 10° SE
PAYLOAD B 4.3 16:51:35 10° SSE 16:57:11 88° ENE 17:02:48 10° NNW
PSLV R/B 4.5 16:53:33 10° S 16:57:37 64° WSW 17:01:43 10° NNW
ATLAS 5 CENTAUR R/B 4.0 16:52:09 10° NW 16:57:44 43° WSW 17:04:03 10° S
Cosmos 2298 Rocket 4.0 16:53:01 10° NNW 16:58:20 71° ENE 17:03:37 10° SSE
Cosmos 2150 Rocket 3.9 16:54:34 10° NNW 16:59:44 66° ENE 17:04:50 10° SSE
AQUARIUS 4.3 16:56:05 10° SSE 17:00:26 53° ENE 17:04:50 10° N
Cosmos 1818 3.7 16:55:30 10° NNW 17:00:53 56° NE 17:06:14 10° SE
Cosmos 1606 3.5 16:59:39 10° SSE 17:03:06 31° E 17:06:35 10° NNE
Sich 1 3.6 17:01:43 10° N 17:05:46 34° ENE 17:09:44 10° SE
BREEZE-M TANK 3.0 16:59:22 10° WNW 17:06:04 73° SSW 17:09:20 10° ESE
Okean O Rocket 1.5 17:03:09 10° SSE 17:07:25 64° ENE 17:11:46 10° N
Cosmos 2333 Rocket 3.6 17:02:30 10° SW 17:07:43 37° WNW 17:12:58 10° N
Radarsat Rocket 4.2 17:04:06 10° SSE 17:10:00 82° WSW 17:16:31 10° NNW
Nadezhda 1 Rocket 4.1 17:04:12 10° S 17:10:31 86° E 17:16:57 10° N
ISS -3.5 17:07:23 10° WSW 17:10:43 62° NNW 17:13:33 14° NE
COSMOS 2428 3.9 17:07:44 10° SW 17:13:10 43° WNW 17:18:37 10° NNE
Cosmos 1125 Rocket 3.5 17:09:22 10° NNW 17:14:32 63° ENE 17:19:41 10° SSE
Cosmos 1356 4.2 17:12:23 10° NNE 17:15:26 29° ENE 17:18:30 10° SE
Cosmos 1805 Rocket 3.6 17:12:19 10° N 17:16:46 62° E 17:21:09 10° SSE
Cosmos 1151 Rocket 4.1 17:16:55 10° SE 17:20:24 24° E 17:23:24 12° NE
CZ-4B R/B 1.4 17:17:41 10° NNE 17:20:40 47° E 17:23:39 10° S
Cosmos 2278 Rocket 2.3 17:16:01 10° NNW 17:21:44 83° WSW 17:27:24 10° SSE
Cosmos 1666 Rocket 4.2 17:18:54 10° N 17:22:55 34° ENE 17:26:55 10° SE
Cosmos 2154 Rocket 4.2 17:19:50 10° N 17:26:11 80° W 17:32:31 10° S
CRYOSAT 2 4.4 17:21:43 10° N 17:26:38 86° W 17:31:32 10° S
Cosmos 1862 4.1 17:22:50 10° NNW 17:26:48 55° W 17:30:42 10° S
Lacrosse 5 rocket 2.5 17:24:12 10° S 17:27:02 21° SE 17:28:08 18° E
USA 267 3.7 17:21:44 12° E 17:27:24 43° NNE 17:33:29 10° NW
Cosmos 962 Rocket 4.5 17:22:32 10° N 17:28:49 66° E 17:34:59 10° SSE
FALCON 9 R/B 2.9 17:31:17 10° S 17:32:16 12° SSE 17:33:17 10° SE
NOSS 0 Rocket 4.5 17:26:52 10° SW 17:33:01 61° WNW 17:39:13 10° NNE
ERS-2 2.0 17:30:23 10° NNE 17:34:03 67° ESE 17:37:41 10° S
CZ-2D R/B 3.9 17:31:05 10° SE 17:34:28 31° ENE 17:37:52 10° N
Cosmos 2341 Rocket 4.0 17:28:54 10° N 17:35:10 66° E 17:41:26 10° SSE
SL-24 R/B 4.4 17:32:45 15° NE 17:35:42 34° E 17:39:08 10° SSE
SL-24 R/B - RUBIN 2 4.3 17:29:36 10° NW 17:35:54 86° WSW 17:41:25 10° SSE
CZ-4 R/B 2.4 17:38:23 23° NE 17:38:23 23° NE 17:41:02 10° NNE
Cosmos 2219 Rocket 4.2 17:34:23 10° WSW 17:38:55 24° NW 17:43:29 10° N
TELKOM 3 3.7 17:38:19 10° WSW 17:40:58 46° NNW 17:41:32 37° NNE
SMAP 4.0 17:36:42 10° S 17:41:13 50° W 17:45:46 10° NNW
CZ-3B R/B 3.0 17:39:35 10° S 17:42:08 17° SE 17:42:22 17° SE
H-2A R/B 3.7 17:38:32 10° N 17:42:17 33° WNW 17:46:04 10° SW
CZ-4B R/B 4.0 17:37:11 10° S 17:42:25 53° W 17:47:38 10° NNW
BREEZE-M DEB (TANK) 1.9 17:40:16 10° WSW 17:42:51 55° NNW 17:43:13 45° NNE
SKYMED 2 3.6 17:41:07 10° NNE 17:45:26 59° E 17:49:42 10° S
USA 81 4.1 17:41:35 10° N 17:46:46 54° E 17:51:56 10° SSE
Cosmos 2237 Rocket 2.8 17:42:29 10° SW 17:48:00 56° WNW 17:53:33 10° NNE
CREW DRAGON DEMO-1 DEB 4.1 17:45:25 10° NW 17:47:43 25° NNE 17:47:43 25° NNE
NOAA 11 4.3 17:43:46 10° S 17:49:10 76° WSW 17:54:38 10° NNW
GENESIS II 4.2 17:45:46 10° NW 17:49:43 80° WSW 17:53:35 10° SSE
Cosmos 2285 Rocket 4.2 17:43:49 10° N 17:49:58 47° ENE 17:56:03 10° SE
Cosmos 1939 Rocket 2.6 17:46:14 10° SSE 17:50:04 72° ENE 17:53:57 10° N
H-2A R/B 2.8 17:52:26 28° E 17:53:15 30° ENE 17:57:45 10° N
Cosmos 1633 Rocket 3.0 17:49:22 10° N 17:53:42 59° E 17:58:00 10° SSE
Cosmos 773 Rocket 4.3 17:52:10 10° S 17:57:07 45° ESE 17:59:15 30° NE
SL-8 Rocket 3.9 17:53:06 10° N 17:59:20 77° E 18:05:36 10° SSE
Cosmos 864 Rocket 4.5 17:53:06 10° N 17:59:21 60° E 18:05:31 10° SSE
CSL-04 Rocket 4.4 18:01:44 30° NE 18:01:44 30° NE 18:05:44 10° N
USA 281 3.2 17:54:46 10° SE 18:01:11 61° ENE 18:07:38 10° NNW
Cosmos 2369 Rocket 3.4 17:58:37 10° N 18:02:10 23° NE 18:02:10 23° NE
Cosmos 783 Rocket 4.4 17:58:20 10° S 18:03:37 74° ESE 18:07:10 21° NNE
Cosmos 2181 Rocket 4.0 17:57:13 10° S 18:03:40 84° E 18:10:05 10° N
MOS 1 Rocket 3.8 18:03:47 23° NE 18:06:53 48° E 18:12:06 10° S
Abrixas rocket 3.6 18:05:22 10° W 18:07:47 27° SW 18:08:24 24° SSW
Cosmos 1959 Rocket 4.4 18:02:04 10° N 18:08:26 74° E 18:14:47 10° SSE
YAOGAN 1 2.8 18:21:23 52° NNE 18:21:23 52° NNE 18:24:52 10° N
Cosmos 1689 Rocket 3.7 18:25:21 33° SW 18:25:21 33° SW 18:27:14 10° SSW
Cosmos 1933 4.4 18:22:33 10° SSW 18:26:25 44° WNW 18:29:41 14° N
SL-08 R/B 4.3 18:21:57 10° N 18:28:04 64° E 18:34:07 10° SSE
Cosmos 2297 3.6 18:23:15 10° NNW 18:28:57 88° WSW 18:34:09 13° SSE
Cosmos 1470 Rocket 4.4 18:24:46 10° N 18:35:04 - S 18:27:22 36° N
Cosmos 1943 Rocket 2.2 18:26:29 10° NNW 18:31:41 57° NE 18:31:41 57° NE
Cosmos 44 3.4 18:26:52 10° NNW 18:32:11 72° NE 18:32:39 68° E
Okean-O 2.6 18:28:03 10° S 18:32:29 78° WSW 18:36:56 10° NNW
Meteor 1-14 Rocket 4.2 18:26:33 10° N 18:32:29 70° E 18:38:27 10° SSE
COSMO-SKYMED 1 3.8 18:29:20 10° N 18:33:24 41° WNW 18:37:28 10° SW
NOAA 15 4.5 18:28:07 10° SSE 18:33:26 89° ENE 18:38:45 10° NNW
CZ-2C R/B 3.0 18:29:23 10° S 18:34:37 82° WSW 18:39:36 10° NNW
Cosmos 1515 Rocket 4.1 18:30:55 10° S 18:34:01 46° S 18:34:01 46° S
Cosmos 1867 4.3 18:30:17 10° SW 18:35:32 49° NW 18:37:58 29° N
ARGOS 4.4 18:38:31 26° N 18:38:31 26° N 18:40:59 10° N
SL-16 R/B 2.5 18:30:13 10° SW 18:35:50 64° WNW 18:38:48 28° N
USA 215 3.9 18:35:13 29° NNE 18:38:18 49° NNW 18:44:32 10° WSW
SL-23 DEB 4.3 18:37:34 10° SW 18:41:12 75° S 18:41:12 75° S
Helios 1A Rocket 3.5 18:39:57 10° S 18:43:54 55° W 18:47:51 10° NNW
Cosmos 1782 3.9 18:40:32 10° SSW 18:43:16 40° SW 18:43:16 40° SW
Cosmos 1538 Rocket 4.2 18:39:37 10° S 18:43:58 57° SSE 18:43:58 57° SSE
ISS -1.0 18:45:27 10° WNW 18:46:31 15° NW 18:46:31 15° NW
Lacrosse 5 rocket 3.6 19:02:27 10° WSW 19:03:46 20° W 19:03:46 20° W
USA 267 3.4 19:09:07 59° S 19:10:11 69° SW 19:16:43 10° NW
CZ-4 R/B 3.8 19:14:25 19° WNW 19:14:25 19° WNW 19:16:02 10° NW
ATLAS CENTAUR R/B 4.0 19:07:23 10° NW 19:25:29 72° SW 19:27:27 56° S
H-2A R/B 3.5 19:33:04 36° W 19:33:04 36° W 19:37:23 10° NNW
Cosmos 2369 Rocket 4.2 19:42:00 10° NNW 19:43:59 22° NW 19:43:59 22° NW
